www.pogodaiklimat.ru

Погода и климат >> Архив погоды >> Китай >> Тайвань >> Ланьюй


ПОГОДА в Ланьюе

  • Прогноз погоды в Ланьюе
  • Монитор погоды в Ланьюе

АРХИВ ПОГОДЫ в Ланьюе

Время (UTC), дата Ветер
(напр.,м/с)
 
Видим.   Явления Облачность Т
(С)
Тd
(С)
f
(%)
Тe
(С)
Тes
(С)
Комфортность P
(гПа)
Po
(гПа)
Тmin
(С)
Tmax
(С)
R
(мм)
R24
(мм)
S
(см)
18 12.08 З 10 н/о н/о +26.1 +26.1 100 +39 +39 очень
душно
1001.9 965.4
21 12.08 З 12 10 км 10/10 300 м
[St]
+26.4 +26.4 100 +40 +40 очень
душно
1002.3 965.8
00 13.08 З 15 15 км 10/10 300 м
[St]
+26.9 +26.0 95 +40 +40 очень
душно
1002.2 965.8
03 13.08 З 14 30 км 3/0
[Ac trans]
+27.8 +22.9 75 +37 +37 очень
душно
1002.1 965.8
06 13.08 З 16 30 км 3/0
[Ac As]
+28.7 +23.9 75 +40 +40 очень
душно
1000.0 963.9
18 13.08 З 11 н/о н/о +25.9 +25.9 100 +38 +38 очень
душно
1003.2 966.6
21 13.08 З 15 15 км 9/9 300 м
[St]
+25.5 +25.4 99 +37 +37 очень
душно
1002.4 965.8
00 14.08 З 13 15 км 6/6 600 м
[Sc diur, vesp]
+27.0 +24.8 88 +39 +39 очень
душно
1003.0 966.5
03 14.08 З 12 15 км 6/4 600 м
[Sc diur, vesp Ac trans]
+28.5 +23.9 76 +39 +39 очень
душно
1003.1 966.8
06 14.08 З 12 15 км 4/4 600 м
[Sc diur, vesp]
+28.1 +24.1 79 +39 +39 очень
душно
1002.1 965.8
09 14.08 З 13 10 км 10/10 300 м
[St]
+26.3 +25.7 97 +39 +39 очень
душно
1001.5 965.0
12 14.08 З 14 10 км 9/9 300 м
[Sc diur, vesp]
+26.0 +25.9 99 +38 +38 очень
душно
1002.9 966.3
18 14.08 З 14 н/о н/о +26.5 +26.4 99 +40 +40 очень
душно
1002.3 965.8
21 14.08 З 14 10 км 8/8 300 м
[Sc diur, vesp]
+26.4 +26.4 100 +40 +40 очень
душно
1002.0 965.5
00 15.08 ЮЗ 12 10 км 10/10 300 м
[St]
+26.8 +26.3 97 +41 +41 опасность
перегрева
1003.0 966.5
03 15.08 ЮЗ 13 12 км 10/10 300 м
[Frnb]
+27.2 +25.8 92 +40 +40 очень
душно
1002.6 966.2
06 15.08 З 14 12 км 9/9 300 м
[Sc diur, vesp]
+26.8 +24.5 87 +38 +38 очень
душно
1002.1 965.7
12 15.08 З 14 10 км {дождь} 10/10 300 м
[St]
+25.8 +25.8 100 +38 +38 очень
душно
1001.6 965.1 0.0
18 15.08 З 13 н/о н/о +26.4 +26.0 98 +39 +39 очень
душно
1002.3 965.8
21 15.08 З 15 10 км 10/10 300 м
[St]
+26.4 +26.2 99 +40 +40 очень
душно
1002.2 965.7
00 16.08 ЮЗ 12 10 км 10/10 300 м
[St]
+26.8 +26.4 98 +41 +41 опасность
перегрева
1004.1 967.6
03 16.08 З 13 5000 м в посл. час дождь 10/10 100 м
[Frnb]
+25.9 +25.9 100 +38 +38 очень
душно
1004.4 967.8 18
06 16.08 З 14 8000 м дымка {дождь} 10/10 100 м
[St]
+25.2 +25.0 99 +36 +36 очень
душно
1004.0 967.3 18
09 16.08 З 16 5000 м слаб. дождь 10/10 100 м
[Frnb]
+24.2 +24.2 100 +33 +33 очень
душно
1003.3 966.5 24
12 16.08 З 16 10 км {дождь} 10/10 300 м
[St]
+24.3 +24.3 100 +34 +34 очень
душно
1004.8 968.0 25
18 16.08 З 15 н/о н/о +25.7 +25.7 100 +38 +38 очень
душно
1004.8 968.1
21 16.08 З 15 10 км 8/8 300 м
[Sc diur, vesp]
+25.5 +25.4 99 +37 +37 очень
душно
1005.2 968.5
00 17.08 З 13 20 км в посл. час дождь 10/3 300 м
[Sc diur, vesp As op]
+24.4 +24.4 100 +34 +34 очень
душно
1006.9 970.0 7
03 17.08 З 13 20 км 8/3 300 м
[Sc diur, vesp Ac trans]
+26.1 +24.6 91 +37 +37 очень
душно
1006.4 969.7
06 17.08 З 14 5000 м дымка 10/10 300 м
[St]
+25.7 +25.1 96 +37 +37 очень
душно
1005.2 968.5
09 17.08 З 16 5000 м дымка 10/10 300 м
[St]
+26.0 +25.9 99 +38 +38 очень
душно
1004.8 968.2
12 17.08 З 16 10 км 10/10 300 м
[St]
+25.5 +25.5 100 +37 +37 очень
душно
1006.1 969.4
18 17.08 З 16 н/о н/о +25.6 +25.3 98 +37 +37 очень
душно
1005.4 968.7
21 17.08 З 13 20 км 9/9 600 м
[Sc diur, vesp]
+25.6 +25.5 99 +37 +37 очень
душно
1005.4 968.7
00 18.08 З 13 20 км 8/8 600 м
[Sc diur, vesp]
+26.4 +24.8 91 +38 +38 очень
душно
1007.0 970.3
03 18.08 З 11 20 км 6/4 600 м
[Sc diur, vesp Ac trans]
+26.3 +24.0 87 +36 +36 очень
душно
1007.4 970.7
06 18.08 З 11 10 км слаб. дождь 10/10 300 м
[Frnb]
+24.7 +24.5 99 +35 +35 очень
душно
1005.5 968.7 0.0
09 18.08 З 9 15 км {дождь} 10/3 600 м
[Sc diur, vesp As op]
+25.4 +24.6 95 +36 +36 очень
душно
1005.6 968.9 0.0
12 18.08 З 13 15 км {дождь} 9/9 300 м
[Sc diur, vesp]
+23.9 +23.9 100 +33 +33 очень
душно
1005.7 968.8 0.0
18 18.08 З 2 н/о н/о +25.3 +23.9 92 +35 +35 очень
душно
1006.4 969.6
21 18.08 З 5 15 км {дождь} 10/10 300 м
[St]
+24.6 +24.6 100 +34 +34 очень
душно
1006.0 969.1 0.0
00 19.08 СЗ 2 20 км {дождь} 9/8 600 м
[Sc diur, vesp Ac As]
+25.6 +23.6 89 +35 +36 очень
душно
1007.0 970.2 0.0
03 19.08 З 3 30 км 9/9 600 м
[Sc diur, vesp]
+27.8 +23.2 76 +37 +39 очень
душно
1007.3 970.8
06 19.08 З 6 20 км слаб. дождь 10/0 2000 м
[As op]
+23.8 +23.8 100 +32 +34 очень
душно
1006.6 969.6 17

 

Местоположение метеостанции Ланьюй (Тайвань, Китай): широта 22.03 долгота 121.55 высота над уровнем моря 325 м.

В архиве по умолчанию представлена погода в Ланьюе за последнюю неделю. Архивные данные за месяц целиком и за предыдущие месяцы, начиная с января 2011 года, Вы можете получить, выбрав интересующий диапазон дат из раскрывающегося списка и нажав кнопку "Ввод!".


*Определитесь, кто Вы:
робот инопланетянин человек

Внимание! Время в таблицах - всемирное. Для получения местного времени необходимо прибавить поправку, которая равна 8 ч.

Смотрите также архив погоды в соседних городах и на ближайших метеорологических станциях:

Погода в Хенгчуне (Тайвань, Китай) (83 км)
Погода в Тайдонге (Тайвань, Китай) (90 км)
Погода в Итбаяте (Филиппины) (140 км)
Погода в Тайнане (Тайвань, Китай) (175 км)
Погода на Баско Радар (Филиппины) (183 км)
Погода в Тайчжуне (Тайвань, Китай) (252 км)
Погода в Калаяне (Филиппины) (307 км)
Погода на Йонагуни (Япония) (310 км)
Погода в Тайбэе (Тайвань, Китай) (334 км)
Погода на Ириомоте (Япония) (350 км)

Пояснения к столбцам:

Ветер - указаны скорость ветра в м/с - средняя за 10 мин, порывы в срок и между сроками (в фигурных скобках) и направление, откуда дует ветер: С - северный, СВ - северо-восточный, В - восточный, ЮВ - юго-восточный, Ю - южный, ЮЗ - юго-западный, З - западный, СЗ - северо-западный.
Видимость - горизонтальная дальность видимости в метрах или километрах. При видимости от 1 до 10 км при отсутствии осадков обычно наблюдается дымка, при ухудшении видимости до 1 км и менее - туман. В сухую погоду видимость может ухудшаться дымом, пылью или мглою.
Явления - указаны атмосферные явления, наблюдавшиеся в срок или в последний час перед сроком; фигурными скобками обозначены явления, наблюдавшиеся между сроками (за 1-3 часа до срока); квадратными скобками обозначены град или гололедные отложения с указанием их диаметра в мм.
Облачность - указаны через наклонную черту общая и нижняя облачность в баллах и высота нижней границы облаков в метрах; квадратными скобками обозначены формы облаков: Ci - перистые, Cs - перисто-слоистые, Cc - перисто-кучевые, Ac - высококучевые, As - высокослоистые, Sc - слоисто-кучевые, Ns - слоисто-дождевые, Cu - кучевые, Cb - кучево-дождевые. Подробнее классификацию облаков см. в Атласе облаков (PDF).
T - Температура воздуха - температура, измеренная на высоте 2 м над землей.
Td - Температура точки росы - температура, при понижении до которой содержащийся в воздухе водяной пар достигнет насыщения.
f - Относительная влажность воздуха - влажноcть воздуха, измеренная на высоте 2 м над землей.
Te - Эффективная температура - температура, которую ощущает одетый по сезону человек в тени. Характеристика душности погоды. При расчете учитывается влияние влажности воздуха и скорости ветра на теплоощущения человека.
Tes - Эффективная температура на солнце - температура, которую ощущает человек, с поправкой на солнечный нагрев. Характеристика знойности погоды. Зависит от высоты солнца над горизонтом, облачности и скорости ветра. Ночью, в пасмурную погоду, а также при ветре 12 м/с и более поправка равна нулю.
P - Атмосферное давление - приведенное к уровню моря атмосферное давление.
Po - Атмосферное давление - измеренное на уровне метеостанции атмосферное давление.
Tmin - Минимальная температура - минимум температуры воздуха на высоте 2 м над землей.
Tmax - Максимальная температура - максимум температуры воздуха на высоте 2 м над землей.
R - Количество осадков - Количество выпавших осадков за период времени, мм. При наведении курсора мыши на число - период времени, за который выпало указанное количество осадков.
R24 - Количество осадков - Количество выпавших осадков за 24 часа, мм.
S - Снежный покров - Высота снежного покрова, см. При наведении курсора мыши на число - состояние снежного покрова и степень покрытия местности в баллах.